Flag for Germany Weather past 2 weeks in Peine, Lower Saxony, Germany

Now
82 °F

Sunny.


Feels Like: 81 °F
Forecast: 60 / 78 °F
Wind: 13 mph from East

Location: Braunschweig

Current Time: Jul 23, 2014 at 6:46:13 PM

Latest Report: Jul 23, 2014 at 6:20 PM


Visibility: 10 mi

Pressure: 30.04 "Hg

Humidity: 30%

Dew point: 48 °F

Location of PeineLocation

Historic Weather in Peine — Graph

°F

Peine temperature yesterday

Maximum temperature yesterday: 84 °F (at 2:50 PM)
Minimum temperature yesterday: 63 °F (at 6:50 AM)
Average temperature yesterday: 75 °F

Past Weeks' High & Low Weather Summary

 TemperatureHumidityPressure
High93 °F (Jul 20, 1:50 PM)100% (Jul 8, 7:50 PM)30.21 "Hg (Jul 8, 7:50 PM)
Low55 °F (Jul 17, 5:50 AM)24% (Jul 19, 4:50 PM)29.56 "Hg (Jul 9, 9:50 AM)
Average74 °F63%29.96 "Hg
* Reported Jul 8 5:20 PM — Jul 23 5:50 PM, Peine, Weather by CustomWeather, © 2014

Note: Actual official high and low records may vary slightly from our data, if they occured in-between our weather recording intervals... More about our weather records

Advertising

Peine weather history for previous 24 hours

 ConditionsComfort  
Time TempWeatherWind HumidityBarometerVisibility
5:50 PM
Jul 23
82 °FPassing clouds.8 mph26%30.04 "HgN/A
5:20 PM82 °FPassing clouds.9 mph28%30.04 "HgN/A
4:50 PM82 °FPassing clouds.12 mph35%30.04 "HgN/A
4:20 PM82 °FPassing clouds.10 mph35%30.07 "HgN/A
3:50 PM82 °FPassing clouds.9 mph37%30.07 "HgN/A
3:20 PM79 °FPassing clouds.10 mph42%30.07 "HgN/A
2:50 PM81 °FPassing clouds.12 mph42%30.09 "HgN/A
1:20 PM81 °FPassing clouds.9 mph42%30.09 "HgN/A
12:50 PM81 °FPassing clouds.9 mph39%30.09 "HgN/A
12:20 PM79 °FPassing clouds.9 mph48%30.12 "HgN/A
11:20 AM77 °FSunny.7 mph54%30.12 "Hg10 mi
10:50 AM75 °FPassing clouds.7 mph54%30.12 "HgN/A
10:20 AM73 °FPassing clouds.8 mph57%30.12 "HgN/A
7:50 AM68 °FPassing clouds.5 mph73%30.12 "HgN/A
7:20 AM66 °FPassing clouds.5 mph78%30.12 "HgN/A
6:50 AM64 °FSunny.3 mph83%30.12 "Hg10 mi
6:50 PM
Jul 22
84 °FPassing clouds.8 mph37%30.04 "HgN/A
6:20 PM82 °FPassing clouds.9 mph40%30.04 "HgN/A
Weather by CustomWeather, © 2014

See weather overviewHow to use our weather pages